Location: ????????
(55.6189°N, 38.3031°E)
Time: 06:09:43
(UTC+00:00)

Meteor 2-20 - Pass Details

Date: 15 November 2019
Orbit: 940 x 958 km, 82.5° (Epoch: 06 December)

Event Time Altitude Azimuth Distance (km) Brightness Sun altitude
Rises 02:27:54 0° 346° (NNW) 3,653 7.3 -21.2°
Reaches altitude 10° 02:30:26 10° 343° (NNW) 2,704 6.6 -20.8°
Maximum altitude 02:36:30 61° 265° (W) 1,087 4.4 -20.0°
Drops below altitude 10° 02:42:32 10° 187° (S) 2,684 6.8 -19.1°
Sets 02:45:03 0° 184° (S) 3,624 7.5 -18.8°
